Regional Weather Roundup
Issued by NWS

Home | Current Version | Previous Version | Graphics & Text | Print | Product List | Glossary On
Versions: 1 2 3 4 5 6 7 8 9 10 11 12 13 14 15 16 17 18 19 20 21 22 23 24 25 26 27 28 29 30 31 32 33 34 35 36 37 38 39 40 41 42 43 44 45 46 47 48 49 50
000
ASUS43 KMKX 280600
RWRWI

WISCONSIN REGIONAL WEATHER ROUNDUP
NATIONAL WEATHER SERVICE MILWAUKEE/SULLIVAN WI
100 AM CDT WED JUN 28 2017

NOTE: "FAIR" INDICATES FEW OR NO CLOUDS BELOW 12,000 FEET WITH NO
SIGNIFICANT WEATHER AND/OR OBSTRUCTIONS TO VISIBILITY.

WIZ001-002-006>008-014>016-023>028-280700-
NORTHWEST WISCONSIN

CITY           SKY/WX    TMP DP  RH WIND       PRES   REMARKS
SUPERIOR ARPT  NOT AVBL
ASHLAND        CLEAR     59  47  64 S9        29.85F
6HR MIN TEMP:  58; 6HR MAX TEMP:  70;

HAYWARD        PTCLDY    61  46  57 S8        29.86F
6HR MIN TEMP:  57; 6HR MAX TEMP:  72;

SIREN          CLOUDY    61  46  58 CALM      29.83F
CUMBERLAND     MOCLDY    59  45  58 SE7       29.86F
RICE LAKE      MOCLDY    60  47  62 SE9       29.88F
CHETEK         MOCLDY    59  49  69 SE7       29.88F
LADYSMITH      CLOUDY    59  48  67 SE5       29.92S
EAU CLAIRE     NOT AVBL
MENOMONIE      CLOUDY    59  49  70 E8        29.87F
NEW RICHMOND   DRIZZLE   63  46  54 SE9       29.81F
OSCEOLA        CLOUDY    66  46  47 SE12G21   29.82F
$$

WIZ003>005-009-010-017-018-280700-
NORTH CENTRAL WISCONSIN

CITY           SKY/WX    TMP DP  RH WIND       PRES   REMARKS
MANITOWISH WTR PTCLDY    55  49  82 S7        29.91F
ARBOR VITAE    CLEAR     57  49  76 S7        29.92F
WOODRUFF       CLEAR     57  49  76 S7        29.92F
RHINELANDER    CLEAR     57  49  74 SW8       29.94F
6HR MIN TEMP:  52; 6HR MAX TEMP:  69;

EAGLE RIVER    CLEAR     56  46  68 S3        29.92F
LAND O LAKES   CLEAR     57  47  71 S5        29.94S
PHILLIPS       CLOUDY    56  48  73 S7        29.91S
TOMAHAWK       NOT AVBL
MEDFORD        CLOUDY    54  48  82 S7        29.93F
MERRILL        CLEAR     59  49  70 S5        29.94F
$$

WIZ029-030-035-036-043>047-280700-
CENTRAL WISCONSIN

CITY           SKY/WX    TMP DP  RH WIND       PRES   REMARKS
WAUSAU           N/A    N/A N/A N/A MISG      29.92F
MOSINEE        CLEAR     52  50  93 S6        29.96F
MARSHFIELD     CLOUDY    55  47  74 SW7       29.93F
6HR MIN TEMP:  54; 6HR MAX TEMP:  70;

STEVENS POINT  CLEAR     52  48  87 CALM      29.96F
WAUPACA        CLEAR     56  53  89 CALM      29.98F
WAUTOMA        PTCLDY    51  50  96 CALM      29.97F
6HR MIN TEMP:  51; 6HR MAX TEMP:  72;

WISC RAPIDS    PTCLDY    59  48  67 S7        29.95F
6HR MIN TEMP:  54; 6HR MAX TEMP:  72;

CAMP DOUGLAS   CLOUDY    50  48  93 SE3       29.93F
6HR MIN TEMP:  48; 6HR MAX TEMP:  72;

$$

WIZ011>013-019>022-031-037>040-048>050-280700-
NORTHEAST WISCONSIN

CITY           SKY/WX    TMP DP  RH WIND       PRES   REMARKS
ANTIGO         CLEAR     55  48  77 SW7       29.96F
SHAWANO        CLEAR     61  52  72 CALM      29.95F
OCONTO         MOCLDY    60  49  68 CALM      29.96S
STURGEON BAY     N/A     61  50  67 S8        29.98S
6HR MIN TEMP:  60; 6HR MAX TEMP:  70;

GREEN BAY      CLEAR     60  53  77 S8        29.97F
6HR MIN TEMP:  59; 6HR MAX TEMP:  73;

MANITOWOC      NOT AVBL
APPLETON       CLEAR     59  46  63 SW8       29.97F
CLINTONVILLE   CLEAR     55  48  76 S6        29.97S
OSHKOSH        CLEAR     57  49  74 S8        29.98F
6HR MIN TEMP:  57; 6HR MAX TEMP:  72;

$$

WIZ032>034-041-042-053>061-280700-
SOUTHWEST WISCONSIN

CITY           SKY/WX    TMP DP  RH WIND       PRES   REMARKS
LA CROSSE      PTCLDY    69  48  47 S8        29.88F
6HR MIN TEMP:  65; 6HR MAX TEMP:  78;

SPARTA         CLOUDY    63  47  57 S6        29.92F
VIROQUA        PTCLDY    62  48  60 S9        29.93F
BOSCOBEL       CLOUDY    64  49  57 S6        29.94F
6HR MIN TEMP:  54; 6HR MAX TEMP:  75;

PRAIRIE DU CHI CLOUDY    62  46  55 SE5       29.93F
PLATTEVILLE    MOCLDY    59  50  70 SE8       29.99F
$$

WIZ056-057-062-063-064-067-068-280700-
SOUTH CENTRAL WISCONSIN

CITY           SKY/WX    TMP DP  RH WIND       PRES   REMARKS
REEDSBURG      CLEAR     59  48  67 S5        29.96F
BARABOO/DELLS  CLEAR     54  47  75 S3        29.97F
LONE ROCK      CLEAR     55  51  86 E5        29.96F
6HR MIN TEMP:  54; 6HR MAX TEMP:  73;

MINERAL POINT  PTCLDY    57  50  77 SE7       29.99F
MADISON        CLEAR     62  49  62 S6        29.99F
6HR MIN TEMP:  62; 6HR MAX TEMP:  73;

MIDDLETON      CLEAR     58  48  69 CALM      30.01S
WATERTOWN      NOT AVBL
MONROE         CLEAR     59  45  58 S7        30.02R
JANESVILLE     CLEAR     59  46  63 CALM      30.01S
$$

WIZ051-052-058>065-066-070>072-280700-
SOUTHEAST WISCONSIN

CITY           SKY/WX    TMP DP  RH WIND       PRES   REMARKS
MILWAUKEE      PTCLDY    61  50  67 S6        30.03R
6HR MIN TEMP:  61; 6HR MAX TEMP:  74;

WAUKESHA       CLEAR     55  46  71 S3        30.04R
MILWAUKEE/TIMM CLEAR     59  45  58 S5        30.03S
RACINE         CLEAR     58  50  75 SW6       30.05R
6HR MIN TEMP:  58; 6HR MAX TEMP:  68;

KENOSHA        CLEAR     59  49  69 S5        30.04R
6HR MIN TEMP:  54; 6HR MAX TEMP:  71;

FOND DU LAC    CLEAR     56  49  77 S6        30.00S
6HR MIN TEMP:  56; 6HR MAX TEMP:  73;

SHEBOYGAN      CLEAR     53  52  96 CALM      30.01R FOG
6HR MIN TEMP:  52; 6HR MAX TEMP:  72; 6HR PCP: TRACE;

WEST BEND      CLEAR     55  50  82 SW5       30.02R
JUNEAU         CLEAR     58  48  69 S6        30.02S
$$

LSZ147-162-280700-
LAKE SUPERIOR

STATION/POSITION TIME  TEMP    WIND        PRES    WAVE
                       AIR SEA DIR/SP/G            HT/PER
                 (UTC) (F)     (DEG/KT/KT) (MB)    (FT/S)
W MID LAKE BUOY  0450   47 39  210/  8/ 10 1010.7R   0
DEVILS ISLAND    0500   65     190/  9/ 14 1010.0S
SAXON HARBOR     0540   62     200/  5/  9 1010.5F
$$

LMZ867-665-643>646-280700-
LAKE MICHIGAN

STATION/POSITION TIME  TEMP    WIND        PRES    WAVE
                       AIR SEA DIR/SP/G            HT/PER
                 (UTC) (F)     (DEG/KT/KT) (MB)    (FT/S)
CHAMBERS ISLAND  0540   65     190/  4/ 10 1013.9S
S GREEN BAY BUOY 0530   66     200/ 12/ 14 1014.4S
N MID LAKE BUOY  0450   57 55  190/ 14/ 14 1015.1R   3/ 5
NORTHPORT PIER   0540   61     180/  3/  6 1014.2S
KEWAUNEE LAKESHO 0530   54     180/  6/  6 1014.9F
SHEBOYGAN LAKESH 0500   60     190/  9/ 10 1015.7R
PORT WASHINGTON  0540   59     230/  2/  4 1017.3R
ATWATER BUOY     0439   62 57  180/ 10/ 12 1016.6R
MILWAUKEE LAKESH 0530   64     220/ 10/ 10   N/A
S MID LAKE BUOY  0450   64 61  150/ 10/ 12 1017.1R   1/ 3
KENOSHA   LAKESH 0500   61     170/  7/  8 1016.6
$$

TC  - TEMPERATURE IN CELSIUS
VSB - VISIBILITY IN STATUTE MILES
WCI - WIND CHILL INDEX
HX  - HEAT INDEX





USA.gov is the U.S. government's official web portal to all federal, state and local government web resources and services.